Погода в Субутаке

Россия / Челябинская область     53°14′05″N   59°34′27″E
темп.,
°C
ветер,
м/с
пор.,
м/с
влажн.,
%
обл.,
%
осадки,
мм/ч
давл.,
гПа
погр.,
м
13 июня, вс
вс1323:00+18вюв71541100 0.0 1019436
02:00+16вюв61439100 0.0 1020334
05:00+15юв41245100 0.0 1021284
08:00+15юв31056100 0.0 1022302
11:00+22ююв673373 0.0 10221244
14:00+24ююв6726100 0.0 10212284
17:00+22юв1243100 0.0 1021115
20:00+20вюв3745100 0.0 1020125
14 июня, пн
пн1423:00+19юв41039100 0.0 1021180
02:00+18ююв5134067 0.0 1021274
05:00+15ю3846100 0.0 1023146
08:00+19ю5114812 0.0 1023391
11:00+24ю57378 0.0 10231219
14:00+26ю56285 0.0 10222216
17:00+27ю55285 0.0 10212529
20:00+23ююв34495 0.0 102158
15 июня, вт
вт1523:00+19ю22484 0.0 102111
02:00+17ю33515 0.0 102126
05:00+16ююз22577 0.0 102112
08:00+21ююз245097 0.0 1021205
11:00+26ю45387 0.0 10201825
14:00+28ююз343171 0.0 10182761
17:00+28юз352913 0.0 10172820
20:00+25зсз22435 0.0 101619
16 июня, ср
ср1623:00+21всв11485 0.0 101611
02:00+19юв22505 0.0 101611
05:00+17ююз11565 0.0 101611
08:00+22ююз24457 0.0 1016214
11:00+28ююз463311 0.0 10151152
14:00+30ююз672699 0.0 10143362
17:00+30юз5729100 0.0 10132936
20:00+25з234387 0.0 101327
17 июня, чт
чт1723:00+22ю2247100 0.0 101215
02:00+20ююв41047100 0.0 1011150
05:00+20ю51349100 0.0 1010273
08:00+22юз51054100 0.1 1008356
11:00+27зюз71146100 0.1 10061414
14:00+28зюз9123996 0.0 10052537
17:00+27з81045100 0.0 10042215
20:00+21зсз8117073 0.0 10061182